Printer-friendly version

IAU Minor Planet Center

Minor Planet Center

MPEC 2001-K35: 2001 KO41

The following Minor Planet Electronic Circular may be linked-to from your own Web pages, but must not otherwise be redistributed electronically.


Read MPEC 2001-K34 Read MPEC 2001-K36


M.P.E.C. 2001-K35                                Issued 2001 May 25, 21:53 UT

     The Minor Planet Electronic Circulars contain information on unusual
         minor planets and routine data on comets.  They are published
   on behalf of Commission 20 of the International Astronomical Union by the
          Minor Planet Center, Smithsonian Astrophysical Observatory,
                          Cambridge, MA 02138, U.S.A.

             Prepared using the Tamkin Foundation Computer Network

                              MPC@CFA.HARVARD.EDU
          URL http://cfa-www.harvard.edu/iau/mpc.html  ISSN 1523-6714

                                   2001 KO41

Observations:
     K01K41O  C2001 05 24.28275 15 59 46.44 -20 18 13.3          18.2        704
     K01K41O  C2001 05 24.29463 15 59 46.44 -20 18 00.3          19.2        704
     K01K41O  C2001 05 24.30649 15 59 46.51 -20 17 48.0          18.6        704
     K01K41O  C2001 05 24.31836 15 59 46.50 -20 17 35.5          18.7        704
     K01K41O  C2001 05 24.33023 15 59 46.55 -20 17 23.3          18.5        704
     K01K41O* C2001 05 24.45133 15 59 48.34 -20 15 11.9          19.7        608
     K01K41O  C2001 05 24.46176 15 59 48.41 -20 15 01.0          19.6        608
     K01K41O  C2001 05 24.47210 15 59 48.41 -20 14 51.1          19.5        608
     K01K41O  C2001 05 24.90641 15 59 55.10 -20 07 28.5                      118
     K01K41O  C2001 05 24.91000 15 59 55.02 -20 07 24.3          18.2 R      118
     K01K41O  C2001 05 24.91337 15 59 55.10 -20 07 21.5                      118
     K01K41O  C2001 05 24.91642 15 59 55.10 -20 07 19.5                      118
     K01K41O  C2001 05 24.93560 15 59 55.31 -20 06 58.4          17.5 R      046
     K01K41O  C2001 05 24.93873 15 59 55.36 -20 06 55.3                      046
     K01K41O  C2001 05 24.94029 15 59 55.34 -20 06 53.6          17.4 R      046
     K01K41O  C2001 05 24.95189 15 59 55.39 -20 06 42.1                      557
     K01K41O  C2001 05 24.97582 15 59 55.48 -20 06 16.9                      557
     K01K41O  C2001 05 24.98405 15 59 55.51 -20 06 08.8          18.9 V      557
     K01K41O  C2001 05 25.22545 15 59 59.40 -20 01 58.0          18.5 R      649
     K01K41O  C2001 05 25.24837 15 59 59.34 -20 01 36.4          18.5 R      649
     K01K41O  C2001 05 25.26077 15 59 59.79 -20 01 22.5          18.8        704
     K01K41O  C2001 05 25.27191 15 59 59.89 -20 01 10.9          19.4        704
     K01K41O  C2001 05 25.28305 15 59 59.89 -20 00 59.5          19.2        704
     K01K41O  C2001 05 25.29414 15 59 59.86 -20 00 48.4          19.0        704
     K01K41O  C2001 05 25.30522 15 59 59.82 -20 00 37.9          19.2        704
     K01K41O  C2001 05 25.31711 15 59 59.65 -20 00 25.6          18.8 R      649
     K01K41O  C2001 05 25.36465 16 00 00.26 -19 59 37.2          18.6        644
     K01K41O  C2001 05 25.37544 16 00 00.30 -19 59 26.0          18.7        644
     K01K41O  C2001 05 25.38615 16 00 00.33 -19 59 15.1          18.8        644

Observer details:
046 Klet.  Observers M. Tichy, M. Kocer.  0.57-m f/5.2 reflector + CCD.
118 Modra.  Observers A. Galad, J. Toth.  0.6-m f/5.5 reflector + CCD.
557 Ondrejov.  Observers P. Pravec, P. Kusnirak.  0.65-m f/3.6 reflector + CCD.
608 Haleakala-NEAT/MSSS.  Observers E. F. Helin, S. Pravdo, K. Lawrence,
    P. Kervin, R. Maeda, J. Africano, M. Hicks.  1.2-m reflector + CCD.
644 Palomar Mountain/NEAT.  Observers E. F. Helin, S. Pravdo, K. Lawrence,
    M. Hicks, E. Hovland, T. Bickler, J. Schroeder, L. Scherr, R. Thicksten,
    A. Deetz.  1.2-m Schmidt + CCD.
649 Powell Observatory, Louisburg.  Observer K. Smalley.  0.75-m Newtonian
    + CCD.
704 Lincoln Laboratory ETS, New Mexico.  Observers M. Blythe, F. Shelly,
    M. Bezpalko, R. Huber, L. Manguso, S. Adams.  Measurers J. Stuart,
    R. Sayer, J. B. Evans, H. Viggh.  1.0-m f/2.15 reflector + CCD.

Orbital elements:
2001 KO41
Epoch 2001 May 11.0 TT = JDT 2452040.5                  Spahr
M  15.93236              (2000.0)            P               Q
n   0.33850155     Peri.  306.91817     -0.98449525     +0.15698700
a   2.0390550      Node   242.23474     -0.11915694     -0.92592538
e   0.4427209      Incl.    5.07385     -0.12872731     -0.34353643
P   2.91           H   20.6           G   0.15
From 29 observations 2001 May 24-25.

Ephemeris:
2001 KO41                a,e,i = 2.04, 0.44, 5                   q = 1.1363
Date    TT    R. A. (2000) Decl.     Delta      r     Elong.  Phase     V
2001 05 21    15 58.99   -21 18.4    0.272    1.284   177.9     1.7    18.5
2001 05 31    16 01.28   -18 33.6    0.321    1.332   172.1     6.0    19.2
2001 06 10    16 04.18   -16 45.3    0.382    1.385   162.7    12.6    20.0
2001 06 20    16 08.62   -15 44.6    0.457    1.440   154.0    18.0    20.6
2001 06 30    16 15.06   -15 20.2    0.543    1.498   145.9    22.4    21.2
2001 07 10    16 23.52   -15 21.1    0.642    1.556   138.5    25.7    21.8
2001 07 20    16 33.76   -15 37.9    0.752    1.616   131.5    28.1    22.3

Timothy B. Spahr             (C) Copyright 2001 MPC           M.P.E.C. 2001-K35

Read MPEC 2001-K34 Read MPEC 2001-K36


Our Web policy. Index to the CBAT/MPC/ICQ pages.


Valid HTML 4.01!